This is the latest recevied weather packets stored in our database for station/object KK7DS. If no packets are shown the sender has not sent any weather packets the latest 1 day(s).
| Time | Temp. | Humidity | Pressure | Rain* | Wind** | Luminosity | Snow |
|---|---|---|---|---|---|---|---|
| 1777995580 | 11.11° C | 92% | 1016.4 hPa | 0 mm | 0.45 m/s, 215° | - | - |
| 1777994430 | 11.11° C | 92% | 1016.4 hPa | 0 mm | 0.89 m/s, 246° | - | - |
| 1777993904 | 11.11° C | 92% | 1016.4 hPa | 0 mm | 0.45 m/s, 248° | - | - |
| 1777993338 | 11.11° C | 91% | 1016.3 hPa | 0 mm | 0.45 m/s, 216° | - | - |
| 1777992840 | 11.11° C | 91% | 1016.2 hPa | 0 mm | 0.45 m/s, 227° | - | - |
| 1777992328 | 11.11° C | 91% | 1016.1 hPa | 0 mm | 0.45 m/s, 227° | - | - |
| 1777991820 | 11.11° C | 91% | 1016 hPa | 0 mm | 0.45 m/s, 211° | - | - |
| 1777991235 | 11.11° C | 91% | 1015.9 hPa | 0 mm | 0 m/s | - | - |
| 1777990640 | 11.11° C | 92% | 1015.9 hPa | 0 mm | 0 m/s | - | - |
| 1777990095 | 11.11° C | 92% | 1015.8 hPa | 0 mm | 0 m/s | - | - |
| 1777989545 | 11.11° C | 92% | 1015.8 hPa | 0 mm | 0 m/s | - | - |
| 1777988490 | 11.11° C | 92% | 1015.7 hPa | 0 mm | 0.45 m/s, 215° | - | - |
| 1777987924 | 11.11° C | 91% | 1015.6 hPa | 0 mm | 0.45 m/s, 227° | - | - |
| 1777987330 | 11.11° C | 91% | 1015.6 hPa | 0 mm | 0 m/s | - | - |
| 1777986842 | 11.11° C | 92% | 1015.6 hPa | 0 mm | 0.45 m/s, 214° | - | - |
| 1777986245 | 11.11° C | 92% | 1015.4 hPa | 0 mm | 0 m/s | - | - |
| 1777985684 | 11.11° C | 91% | 1015.4 hPa | 0 mm | 0.45 m/s, 219° | - | - |
| 1777985150 | 11.11° C | 91% | 1015.4 hPa | 0 mm | 0.45 m/s, 215° | - | - |
| 1777984557 | 11.11° C | 91% | 1015.4 hPa | 0 mm | 0 m/s | - | - |
| 1777983985 | 11.11° C | 91% | 1015.4 hPa | 0 mm | 0.45 m/s, 217° | - | - |
| 1777983480 | 11.11° C | 91% | 1015.3 hPa | 0 mm | 0 m/s | - | - |
| 1777982995 | 11.11° C | 91% | 1015.2 hPa | 0 mm | 0 m/s | - | - |
| 1777981920 | 11.11° C | 91% | 1015.2 hPa | 0 mm | 0.45 m/s, 212° | - | - |
| 1777981430 | 11.11° C | 91% | 1015.2 hPa | 0 mm | 0 m/s | - | - |
| 1777980903 | 11.11° C | 90% | 1015.1 hPa | 0 mm | 0.45 m/s, 226° | - | - |
* Rain latest hour (hover to see other rain measurements)
** Current wind speed in m/s (hover to see current wind gust speed)